Location: Buckeye Ditch
(40.9104°N, 122.9517°W)
Time: 11:47:28
(UTC+00:00)

Tiros 1 despin weight - Pass Details

Date: 20 May 2025
Orbit: 563 x 601 km, 48.2° (Epoch: 22 June)

Event Time Altitude Azimuth Distance (km) Brightness Sun altitude
Rises 16:31:14 0° 297° (WNW) 2,847 ? 39.8°
Reaches altitude 10° 16:33:34 10° 293° (WNW) 1,943 ? 40.2°
Maximum altitude 16:37:56 56° 215° (SW) 717 ? 41.0°
Drops below altitude 10° 16:42:16 10° 138° (SE) 1,929 ? 41.8°
Sets 16:44:34 0° 134° (SE) 2,825 ? 42.3°
